Lapse_Rate
5.0 4.9 5.1 5.2 5.0 4.8 5.0 5.4 5.5 5.4 5.5 5.5 5.4 5.5 5.5 5.3 5.1 5.1 5.3 5.3 5.3 5.3 5.4 5.2 4.8 4.6 4.6 4.6 4.5 4.6 4.7 4.9 5.0 5.1 5.1 5.4 5.7 6.0 6.2 6.3 6.4 6.6 6.8
5.3 4.9 5.1 5.3 5.3 4.9 4.9 5.1 5.4 5.3 5.1 5.2 4.9 5.2 5.6 5.4 5.1 5.4 5.6 5.5 5.3 5.1 5.4 5.1 5.0 4.6 4.5 4.4 4.6 4.5 4.5 4.7 4.9 5.0 5.2 5.4 5.7 6.0 6.1 6.5 6.5 6.7 7.0
5.5 5.1 5.1 5.4 5.2 5.0 4.9 5.1 5.3 5.3 5.2 5.1 5.3 5.4 5.8 5.7 5.3 5.4 5.8 5.7 5.4 5.1 5.3 5.1 5.1 4.9 4.5 4.4 4.3 4.4 4.6 4.6 4.9 5.1 5.1 5.1 5.2 5.8 6.1 6.5 6.8 7.0 7.2
5.6 5.1 4.8 5.2 5.3 5.1 4.9 4.9 4.9 4.9 5.2 5.4 5.5 5.1 5.3 5.4 5.2 5.3 5.8 5.8 5.7 5.4 5.2 5.2 5.2 5.1 4.8 4.5 4.4 4.3 4.4 4.8 4.9 5.0 5.1 5.1 5.4 5.7 6.0 6.5 6.9 7.2 7.3
6.0 5.5 5.5 5.3 5.2 4.8 5.0 5.0 4.9 4.7 5.1 5.4 5.4 5.4 5.5 5.5 5.4 5.2 5.6 5.8 5.7 5.4 5.4 5.3 5.3 5.2 4.9 4.7 4.5 4.5 4.4 4.8 4.8 4.9 4.9 5.0 5.3 5.7 6.3 6.6 6.9 7.2 7.3
6.2 5.9 5.4 5.0 5.4 4.9 4.8 4.7 4.8 4.9 4.9 5.3 5.4 5.7 5.7 5.5 5.4 5.4 5.4 5.6 5.6 5.4 5.4 5.2 5.2 5.0 5.0 5.0 4.8 4.7 4.6 4.6 4.8 4.8 4.9 4.9 5.1 5.6 6.3 6.7 6.9 7.1 7.2
6.1 6.3 6.6 6.2 5.7 5.4 4.9 5.0 5.0 5.1 4.9 5.1 5.5 5.8 6.0 5.9 5.6 5.4 5.4 5.5 5.4 5.5 5.5 5.3 5.2 5.0 5.0 5.3 5.0 4.9 4.7 4.7 4.8 4.8 4.9 5.1 5.5 5.6 6.1 6.7 6.8 7.0 7.3
6.5 6.4 6.6 6.7 6.3 5.9 5.3 5.1 5.2 5.3 5.1 5.1 5.4 5.7 6.0 6.1 6.0 5.8 5.5 5.5 5.3 5.3 5.5 5.6 5.5 5.3 5.1 5.1 4.9 5.0 5.0 4.8 4.8 5.1 4.9 5.2 5.5 5.7 6.1 6.5 6.8 7.0 7.2
7.7 6.8 6.5 6.6 6.5 6.1 5.6 5.4 5.7 5.6 5.3 5.5 5.4 5.4 5.9 6.1 6.2 6.0 5.9 5.8 5.7 5.3 5.4 5.7 5.7 5.4 5.3 5.2 4.9 5.1 5.2 5.1 5.2 5.2 5.2 5.3 5.4 5.5 5.9 6.4 6.5 6.7 6.9
7.6 7.3 6.7 6.4 6.4 6.3 5.9 5.6 5.4 5.8 5.6 5.5 5.6 5.3 5.5 5.9 6.0 6.1 6.1 5.9 5.6 5.7 5.4 5.6 5.5 5.6 5.6 5.2 5.1 5.1 5.4 5.3 5.3 5.2 5.3 5.5 5.5 5.7 5.8 6.1 6.4 6.6 6.8
7.8 7.4 7.2 6.7 6.2 6.1 6.0 5.8 5.6 5.6 5.5 5.4 5.3 5.3 5.2 5.7 5.9 6.1 6.0 5.9 5.7 5.7 5.8 5.6 5.7 5.6 5.7 5.6 5.3 5.2 5.3 5.5 5.5 5.4 5.5 5.5 5.6 5.9 5.9 6.1 6.3 6.5 6.6
8.2 7.6 7.4 6.8 6.5 6.1 6.1 6.0 5.7 5.6 5.4 5.5 5.3 5.3 5.1 5.0 5.5 6.0 5.9 5.7 5.7 5.6 5.8 5.8 5.8 5.8 5.7 5.7 5.6 5.4 5.4 5.4 5.6 5.6 5.6 5.6 5.8 5.9 6.1 6.2 6.3 6.4 6.6
7.8 7.5 7.3 7.5 7.4 6.6 6.1 6.0 5.9 5.8 5.8 5.5 5.4 5.2 5.0 5.0 5.3 5.7 5.8 5.8 5.6 5.5 5.5 5.9 5.9 6.0 5.8 5.7 5.6 5.6 5.6 5.6 5.7 5.7 5.7 5.8 6.0 6.0 6.1 6.3 6.4 6.4 6.6
7.0 7.2 7.2 7.1 7.0 6.8 7.3 6.6 6.2 6.0 6.1 5.7 5.6 5.2 5.1 5.0 5.0 5.1 5.2 5.4 5.5 5.4 5.4 5.6 5.7 5.8 5.7 5.7 5.8 5.7 5.8 5.8 5.9 5.9 5.9 5.9 6.0 5.9 6.1 6.3 6.4 6.5 6.6
5.8 5.8 6.0 6.6 6.8 7.0 7.0 7.0 6.8 6.4 6.2 6.0 5.9 5.8 5.5 5.4 5.2 5.1 4.9 5.0 5.2 5.5 5.4 5.5 5.5 5.5 5.6 5.7 5.8 5.9 5.9 5.9 6.0 6.0 6.0 6.1 6.0 6.0 6.1 6.2 6.3 6.5 6.6
5.2 5.5 5.5 5.9 6.2 6.1 6.7 7.0 7.1 6.9 6.5 6.6 6.5 6.3 5.9 5.5 5.3 5.1 5.2 4.8 4.9 5.2 5.5 5.4 5.5 5.5 5.6 5.6 5.6 5.8 5.9 5.9 6.1 6.2 6.3 6.2 6.2 6.2 6.1 6.2 6.3 6.4 6.5
5.4 5.1 5.5 5.3 5.3 5.6 5.7 5.6 6.0 7.0 7.2 7.0 6.8 6.6 6.5 6.4 5.9 5.7 5.3 5.1 5.0 5.0 5.3 5.6 5.6 5.6 5.8 5.8 5.6 5.6 5.8 5.9 6.1 6.2 6.2 6.3 6.4 6.3 6.3 6.3 6.3 6.4 6.5
5.2 5.2 5.4 5.6 5.3 5.4 5.5 5.3 5.4 5.9 6.0 6.5 6.7 6.7 6.6 6.5 6.7 6.2 6.1 5.9 5.5 5.3 5.5 5.6 5.7 5.8 5.9 5.9 5.8 5.6 5.5 5.7 5.9 6.1 6.2 6.2 6.2 6.3 6.3 6.3 6.4 6.5 6.5
5.3 5.2 5.2 5.3 5.3 5.4 5.6 5.6 5.6 5.7 5.8 6.2 6.2 6.4 6.2 6.4 6.7 6.5 6.3 6.2 5.7 5.4 5.4 5.4 5.6 5.9 6.1 6.1 6.2 6.0 5.7 5.6 5.8 5.8 6.1 6.3 6.4 6.4 6.2 6.1 6.4 6.4 6.7
5.5 5.6 5.5 5.5 5.5 5.3 5.3 5.3 5.5 5.6 5.8 5.7 5.8 5.9 6.1 6.3 6.3 6.5 6.5 6.3 6.0 5.9 5.7 5.4 5.4 5.6 6.0 6.0 6.0 6.0 5.9 5.9 6.3 6.3 6.2 6.4 6.5 6.6 6.4 6.1 6.3 6.5 6.7
5.3 5.2 5.7 5.7 5.6 5.6 5.5 5.4 5.3 5.3 6.0 5.9 6.0 6.1 6.2 6.8 6.4 6.7 6.7 6.5 6.3 6.0 5.9 5.9 6.0 6.0 6.2 6.4 6.3 6.2 6.0 6.3 6.4 6.5 6.6 6.5 6.6 6.5 6.4 6.2 6.2 6.7 6.7
5.5 5.3 5.2 5.5 5.7 5.6 5.6 5.7 5.6 5.4 5.2 5.7 5.6 6.1 6.6 6.6 6.4 6.6 6.5 6.4 6.4 6.3 6.1 6.1 6.3 6.6 6.8 6.7 6.8 6.8 6.5 6.5 6.4 6.6 6.6 6.7 6.8 6.7 6.4 6.2 6.3 6.3 6.4
5.6 5.6 5.4 5.4 5.7 5.7 5.5 5.7 5.8 5.7 5.6 5.3 5.4 5.5 5.8 5.9 5.7 6.2 6.4 6.5 6.4 6.5 6.5 6.4 6.5 6.6 6.8 6.9 6.9 6.9 6.8 6.8 6.7 6.7 6.8 6.8 6.8 6.8 6.5 6.2 6.3 6.1 6.2
6.0 5.9 5.3 5.5 5.7 5.6 5.6 5.8 5.8 5.8 5.8 5.9 5.7 5.7 5.8 5.8 5.8 6.0 6.2 6.3 6.3 6.5 6.6 6.6 6.7 6.8 6.7 6.8 6.8 6.9 6.8 6.7 6.7 6.9 6.8 6.6 6.6 6.6 6.6 6.5 6.4 6.3 6.3
5.7 5.9 5.6 5.4 5.4 5.8 5.7 5.7 5.9 6.0 6.1 6.0 6.0 5.7 5.9 6.0 5.9 5.9 5.7 6.2 6.6 6.6 6.4 6.7 6.7 6.6 6.7 6.9 6.4 6.3 6.4 6.4 6.6 6.4 6.4 6.6 6.8 7.0 7.0 7.0 6.9 6.7 6.4
5.2 5.3 5.5 5.6 5.4 5.5 5.7 5.7 6.0 6.2 6.3 6.4 6.2 5.9 6.0 6.1 5.9 6.0 5.9 5.9 6.0 6.2 6.4 6.5 6.6 6.8 6.9 6.9 6.8 6.4 6.3 6.2 6.1 6.1 6.4 6.6 7.0 7.2 7.2 7.1 6.9 6.6 6.4
Wind_Speed
19 17 15 15 13 13 14 15 14 12 9 8 8 6 6 5 4 5 5 5 5 5 4 4 5 3 3 2 3 4 3 2 1 1 0 2 4 5 4 4 4 4 5
19 17 17 16 16 16 15 14 14 13 11 8 7 4 5 4 3 5 7 5 5 6 6 6 5 4 3 3 3 2 3 2 2 1 1 3 2 1 1 2 3 4 5
22 20 18 18 17 16 16 16 16 15 13 10 6 3 4 2 4 5 5 6 6 6 7 6 5 5 4 4 3 3 1 3 2 1 2 2 3 4 1 1 1 2 2
20 19 19 18 18 18 17 16 15 15 13 13 10 10 8 6 5 6 5 6 8 8 8 7 6 5 4 3 3 3 2 1 3 2 1 1 2 3 2 2 1 1 2
22 22 22 21 20 17 16 16 15 14 13 14 11 9 10 7 5 5 7 6 7 7 8 8 8 7 6 6 5 3 3 2 2 1 1 0 0 0 2 3 3 1 1
21 22 22 20 19 17 16 15 16 15 14 14 14 12 12 9 7 6 6 6 6 5 8 9 8 6 6 5 5 4 3 2 1 1 1 0 2 2 3 2 2 3 3
20 20 22 21 19 19 16 15 16 16 16 15 15 14 13 12 11 9 7 8 6 5 7 9 7 6 7 6 4 4 4 4 2 2 2 1 2 2 2 3 3 3 3
20 21 22 21 20 19 18 17 16 16 16 16 16 13 14 10 10 10 8 7 7 7 9 10 9 7 6 6 5 5 4 3 3 3 1 2 2 0 2 3 3 2 2
18 20 20 20 20 19 19 18 17 16 17 19 14 14 13 13 11 10 9 7 7 6 8 10 8 9 9 8 7 4 5 4 4 4 3 2 1 1 0 1 2 3 3
14 15 17 18 17 18 18 18 18 18 19 19 16 14 15 14 13 10 11 10 8 8 8 9 9 9 10 10 8 6 6 6 5 4 4 3 3 3 2 2 1 1 2
4 9 10 12 14 15 16 17 16 16 16 16 15 15 14 16 14 13 12 11 10 8 9 9 9 9 10 10 9 8 7 7 6 5 5 5 4 4 3 3 3 3 3
17 14 3 2 10 12 12 14 15 15 15 15 14 16 15 14 15 14 14 13 12 10 9 9 9 9 10 10 11 10 9 9 9 8 7 7 5 6 5 5 5 5 4
20 18 18 16 12 2 6 11 13 14 13 11 12 12 15 15 16 16 15 13 13 12 11 10 10 11 11 11 11 11 10 10 10 9 9 8 8 7 6 6 5 5 5
16 15 17 15 13 13 12 8 6 10 12 14 13 14 13 14 16 15 14 14 13 13 13 13 12 12 11 11 11 11 11 11 11 10 10 10 9 9 8 7 7 6 6
16 16 14 13 13 14 14 12 11 8 11 14 15 17 17 15 13 13 14 15 14 13 14 14 13 13 12 10 12 12 12 11 12 11 11 11 11 9 9 7 8 7 8
15 14 15 14 14 13 13 13 13 12 10 12 16 14 14 14 15 15 14 14 15 15 14 15 15 15 12 12 14 13 11 12 11 12 12 12 10 11 12 12 12 10 9
16 16 14 14 14 14 13 13 13 13 12 10 12 15 14 15 15 16 14 15 15 14 15 16 15 16 16 13 15 17 13 12 12 13 12 12 10 12 12 12 12 12 13
16 16 15 15 14 14 13 13 13 12 11 10 7 11 14 15 15 15 15 15 14 14 14 15 15 15 14 14 17 17 17 13 15 14 15 14 14 13 13 12 12 12 12
15 14 14 16 16 15 14 14 13 12 11 11 10 7 12 13 14 16 15 15 14 14 15 15 15 15 16 15 17 16 16 16 16 15 16 15 16 14 15 14 14 13 13
17 17 17 16 15 15 15 13 13 13 12 11 13 10 7 9 13 14 14 13 12 14 12 15 15 16 17 14 18 17 14 15 15 15 16 16 18 14 15 15 14 14 15
19 19 18 15 14 14 15 14 14 13 13 15 11 12 11 8 8 9 11 13 14 13 13 15 14 16 16 17 18 19 15 14 14 14 14 15 20 20 16 19 14 14 13
18 17 16 18 15 14 14 15 15 15 15 15 14 13 11 11 7 7 9 11 12 13 14 14 14 13 15 17 16 20 23 17 15 15 14 14 15 19 18 15 17 14 10
16 15 16 16 18 15 13 16 16 14 16 17 16 13 12 13 12 9 8 8 7 11 10 11 12 12 12 13 20 18 21 23 15 15 14 12 12 14 14 18 16 15 11
17 17 18 18 17 17 17 17 17 16 14 18 17 15 13 12 11 9 8 8 10 9 10 11 11 13 13 13 13 12 13 17 15 20 15 13 12 12 12 10 11 11 12
13 15 17 18 19 18 19 18 19 18 17 14 16 12 13 10 11 10 10 9 9 11 13 13 13 13 14 14 14 14 13 13 14 12 13 13 13 13 13 13 13 12 12
13 14 16 16 18 20 20 20 18 17 17 16 12 9 10 9 9 10 10 14 17 16 17 20 14 13 16 10 13 15 14 12 9 11 14 12 13 13 12 12 13 13 14
Wind_Direction
189 191 192 191 188 187 187 192 184 185 186 184 193 196 209 210 213 219 203 183 179 170 166 178 154 155 137 99 94 115 123 120 84 303 298 250 250 262 269 271 279 283 280
190 196 194 192 190 189 193 194 189 185 192 187 194 203 191 212 215 185 182 182 167 169 171 170 155 156 138 150 150 132 131 118 96 59 332 2 148 261 303 258 276 291 291
195 195 197 195 196 195 195 196 197 189 187 190 184 160 167 147 179 180 185 183 167 157 179 173 168 167 189 161 170 168 185 148 122 24 351 333 15 334 91 95 315 312 282
202 195 196 196 200 200 200 202 197 196 190 185 189 201 205 193 197 177 183 174 173 161 173 179 177 162 181 176 167 174 129 171 133 149 159 347 329 346 25 103 64 294 294
199 197 197 196 199 204 201 202 201 199 197 193 194 200 213 204 185 179 178 179 178 180 175 177 179 184 198 185 177 162 115 148 163 152 168 168 218 251 326 48 52 121 46
201 203 200 195 197 199 201 199 198 197 199 200 194 203 211 198 191 193 189 182 181 176 181 173 175 193 191 199 193 174 175 173 144 154 203 348 357 35 15 23 57 8 27
204 199 199 198 201 198 197 199 198 201 198 201 205 204 215 206 200 192 200 186 186 187 184 185 183 184 193 196 194 197 186 186 186 196 119 148 90 34 27 354 42 10 24
203 203 200 198 199 198 196 196 196 202 200 203 207 205 210 220 214 206 205 208 204 201 183 186 197 179 186 199 195 199 201 195 209 186 152 139 120 73 19 9 353 19 32
207 206 198 198 196 197 200 197 198 203 202 206 203 206 211 217 222 213 213 213 211 198 197 188 193 184 188 194 191 203 198 200 221 218 206 250 201 204 302 7 345 350 351
211 204 196 201 198 199 200 201 203 202 204 205 206 209 214 218 219 215 213 214 210 208 195 203 198 193 195 190 202 199 203 204 217 229 222 238 250 239 237 237 203 257 313
187 209 202 205 199 199 200 203 207 209 210 208 210 210 210 220 217 219 218 218 212 198 201 201 210 204 199 197 200 208 204 215 215 216 226 232 232 247 235 228 227 240 246
46 44 26 173 194 205 210 209 211 210 212 211 207 211 205 210 221 218 217 215 221 206 204 201 206 211 209 203 209 206 203 209 215 216 217 227 222 228 235 237 242 251 247
37 37 41 31 28 5 221 218 216 217 215 208 208 215 220 211 218 222 217 216 223 226 213 202 205 208 210 208 212 220 216 214 222 221 218 222 218 226 236 234 239 240 246
30 26 26 22 14 12 12 8 281 246 226 214 210 210 208 214 219 222 219 218 214 219 228 219 212 210 210 209 215 218 222 224 223 224 225 226 224 225 226 230 239 248 255
22 16 12 9 8 2 0 359 1 348 273 241 229 224 219 211 212 215 218 219 221 218 221 227 229 222 218 214 211 214 221 225 227 224 227 228 229 224 233 244 242 252 246
16 7 358 360 360 353 342 344 345 344 327 270 246 240 230 224 219 215 214 216 219 221 219 225 226 230 231 214 199 208 216 220 225 227 228 235 216 227 223 224 239 255 253
1 358 352 344 345 341 337 331 329 326 329 301 260 245 236 229 224 223 220 220 219 222 220 223 227 226 228 213 203 207 221 219 220 223 227 233 234 222 236 220 225 238 231
347 343 341 337 335 330 329 328 326 328 325 341 306 255 237 236 231 227 224 221 221 221 222 225 226 228 232 205 203 206 226 228 228 226 223 227 236 231 228 234 241 242 242
330 328 327 326 324 325 328 326 327 327 337 329 340 307 248 243 238 232 231 228 226 225 225 227 227 226 233 207 207 200 226 236 234 230 229 227 232 228 210 232 244 251 253
323 320 322 319 322 326 324 322 319 321 319 324 323 324 313 285 251 243 240 235 231 233 234 235 230 229 235 212 208 202 229 232 236 233 234 216 231 213 200 219 239 247 253
315 317 313 315 318 322 321 313 311 308 310 311 297 306 311 295 263 274 258 239 236 237 232 238 237 233 229 232 204 201 221 231 233 237 236 235 206 222 203 207 233 238 245
311 307 306 311 317 320 317 311 306 306 304 305 298 305 305 296 277 269 264 254 234 233 233 233 237 236 237 228 216 204 208 220 233 240 239 238 203 204 205 206 230 238 231
311 306 302 302 307 313 317 310 310 309 305 301 293 297 293 284 290 273 259 253 247 230 233 236 238 242 238 236 218 209 210 220 226 235 239 242 207 204 211 215 221 222 237
310 307 301 293 295 301 305 305 308 305 293 291 286 286 284 283 284 280 268 248 244 234 234 237 237 244 244 239 234 221 221 225 221 237 239 243 239 227 236 218 213 231 233
303 300 296 293 290 295 297 301 303 302 290 279 277 271 280 284 281 270 269 260 244 250 247 241 242 243 243 238 231 229 220 215 216 223 233 236 232 236 235 235 234 230 229
301 295 293 293 295 297 297 296 297 297 288 278 268 264 275 281 280 277 274 246 244 259 256 255 255 247 239 255 210 214 227 224 191 206 228 227 227 227 228 233 234 232 235